Location: Izdebno
(52.6670°N, 16.2170°E)
Time: 04:32:06
(UTC+01:00)

ISS - Visible Passes

Search period start: 22 March 2023 00:00
Search period end: 01 April 2023 01:00
Orbit: 414 x 423 km, 51.6° (Epoch: 22 March)

Date Brightness Start Highest point End Pass type
(mag) Time Alt. Az. Time Alt. Az. Time Alt. Az.
22 Mar -3.3 18:41:48 10° SW 18:45:02 46° SSE 18:48:16 10° E visible
22 Mar -3.9 20:18:19 10° W 20:21:37 76° SSW 20:21:37 76° SSW visible
23 Mar -3.8 19:30:31 10° W 19:33:53 74° S 19:35:46 24° E visible
23 Mar -1.6 21:07:16 10° W 21:08:43 23° W 21:08:43 23° W visible
24 Mar -3.7 18:42:43 10° WSW 18:46:03 67° S 18:49:23 10° E visible
24 Mar -3.8 20:19:25 10° W 20:22:45 67° S 20:22:47 67° S visible
25 Mar -3.8 19:31:32 10° W 19:34:53 74° S 19:36:50 23° ESE visible
25 Mar -1.5 21:08:21 10° W 21:09:46 21° WSW 21:09:46 21° WSW visible
26 Mar -3.3 21:20:24 10° W 21:23:38 46° SSW 21:23:46 46° S visible
27 Mar -3.5 20:32:26 10° W 20:35:45 57° SSW 20:37:45 21° ESE visible
27 Mar -1.2 22:09:33 10° W 22:10:41 16° WSW 22:10:41 16° WSW visible
28 Mar -2.4 21:21:23 10° W 21:24:17 27° SSW 21:24:40 27° SSW visible
29 Mar -2.7 20:33:16 10° W 20:36:24 36° SSW 20:38:39 16° SE visible
30 Mar -1.4 21:22:42 10° WSW 21:24:40 15° SW 21:25:34 13° SSW visible
31 Mar -1.7 20:34:13 10° W 20:36:48 21° SSW 20:39:22 10° SSE visible
